FW5225 Weather Reports


Display with metric or nautical units.
time (UTC)temp
F
wind
direction
speed
MPH
gust
MPH
rain 1hr
in
rain 24hr
in
rain mn
in
humidity
%
barometer
mb
20260906014602 93 329 2.0 8.0 0.00 0.00 0.00 29 1007.4
20260906014059 93 311 1.0 5.0 0.00 0.00 0.00 29 1007.4
20260906013601 94 331 2.0 5.0 0.00 0.00 0.00 29 1007.4
20260906013109 94 284 2.0 8.0 0.00 0.00 0.00 29 1007.5
20260906012559 94 286 4.0 9.0 0.00 0.00 0.00 29 1007.5
20260906012058 94 297 6.0 9.0 0.00 0.00 0.00 28 1007.6
20260906011606 94 294 4.0 9.0 0.00 0.00 0.00 28 1007.5
20260906011058 94 261 5.0 11.0 0.00 0.00 0.00 28 1007.4
20260906010557 94 310 7.0 11.0 0.00 0.00 0.00 28 1007.5
20260906010059 95 302 5.0 9.0 0.00 0.00 0.00 28 1007.5
20260906005557 95 301 5.0 9.0 0.00 0.00 0.00 28 1007.5
20260906005057 95 265 3.0 9.0 0.00 0.00 0.00 28 1007.4
20260906004604 95 292 4.0 8.0 0.00 0.00 0.00 27 1007.4
20260906004057 95 293 3.0 7.0 0.00 0.00 0.00 27 1007.3
20260906003558 95 321 2.0 9.0 0.00 0.00 0.00 27 1007.4
20260906003103 95 338 3.0 9.0 0.00 0.00 0.00 28 1007.4
20260906002556 96 296 3.0 10.0 0.00 0.00 0.00 27 1007.3
20260906002056 96 322 5.0 10.0 0.00 0.00 0.00 27 1007.4
20260906001556 96 301 2.0 8.0 0.00 0.00 0.00 27 1007.3
20260906001057 96 343 4.0 12.0 0.00 0.00 0.00 26 1007.3
20260906000555 97 319 6.0 12.0 0.00 0.00 0.00 26 1007.3
20260906000058 97 292 2.0 12.0 0.00 0.00 0.00 27 1007.4
20260905235556 97 276 6.0 12.0 0.00 0.00 0.00 26 1007.5
20260905235056 98 270 5.0 10.0 0.00 0.00 0.00 26 1007.4
20260905234556 98 324 6.0 10.0 0.00 0.00 0.00 26 1007.4
20260905234056 98 313 2.0 9.0 0.00 0.00 0.00 26 1007.3
20260905233556 98 281 3.0 10.0 0.00 0.00 0.00 25 1007.3
20260905233054 98 289 6.0 10.0 0.00 0.00 0.00 25 1007.3
20260905232554 98 301 6.0 10.0 0.00 0.00 0.00 25 1007.3
20260905232054 98 290 3.0 10.0 0.00 0.00 0.00 25 1007.3
20260905231554 98 281 4.0 11.0 0.00 0.00 0.00 25 1007.3
20260905231053 99 274 5.0 11.0 0.00 0.00 0.00 24 1007.3
20260905230553 99 304 1.0 7.0 0.00 0.00 0.00 24 1007.4
20260905230054 99 300 3.0 9.0 0.00 0.00 0.00 24 1007.4
20260905225553 100 294 5.0 10.0 0.00 0.00 0.00 23 1007.4
20260905225052 100 257 2.0 10.0 0.00 0.00 0.00 23 1007.4
20260905224555 101 261 6.0 10.0 0.00 0.00 0.00 23 1007.5
20260905224052 101 309 2.0 8.0 0.00 0.00 0.00 23 1007.4
20260905223553 101 281 2.0 8.0 0.00 0.00 0.00 23 1007.4
20260905223051 100 286 1.0 8.0 0.00 0.00 0.00 23 1007.5
20260905222549 100 323 4.0 7.0 0.00 0.00 0.00 23 1007.5
20260905222049 101 250 1.0 6.0 0.00 0.00 0.00 23 1007.6
20260905221549 100 319 1.0 7.0 0.00 0.00 0.00 23 1007.7
20260905221049 100 196 2.0 9.0 0.00 0.00 0.00 23 1007.8
20260905220549 99 183 3.0 9.0 0.00 0.00 0.00 25 1007.9
20260905220049 99 231 3.0 8.0 0.00 0.00 0.00 24 1008.0
20260905215548 98 246 3.0 7.0 0.00 0.00 0.00 25 1008.1
20260905215048 98 255 1.0 8.0 0.00 0.00 0.00 24 1008.1
20260905214548 98 321 4.0 8.0 0.00 0.00 0.00 24 1008.2
20260905214048 98 266 3.0 8.0 0.00 0.00 0.00 25 1008.2
20260905213547 98 329 0.0 4.0 0.00 0.00 0.00 25 1008.3
20260905213048 98 242 0.0 7.0 0.00 0.00 0.00 24 1008.3
20260905212548 98 269 1.0 7.0 0.00 0.00 0.00 24 1008.4
20260905212048 98 274 1.0 7.0 0.00 0.00 0.00 24 1008.5
20260905211552 98 284 1.0 4.0 0.00 0.00 0.00 24 1008.5
20260905211047 97 242 0.0 6.0 0.00 0.00 0.00 24 1008.7
20260905210548 97 297 2.0 8.0 0.00 0.00 0.00 24 1008.7
20260905210050 98 281 4.0 8.0 0.00 0.00 0.00 24 1008.7
20260905205546 98 329 4.0 8.0 0.00 0.00 0.00 24 1008.8
20260905205047 99 263 4.0 8.0 0.00 0.00 0.00 23 1008.8
20260905204548 99 285 0.0 5.0 0.00 0.00 0.00 23 1008.8
20260905204046 100 307 1.0 5.0 0.00 0.00 0.00 23 1008.8
20260905203546 100 232 1.0 5.0 0.00 0.00 0.00 23 1008.9
20260905203046 99 231 1.0 7.0 0.00 0.00 0.00 23 1009.0
20260905202545 99 265 4.0 7.0 0.00 0.00 0.00 23 1009.0
20260905202046 99 174 1.0 8.0 0.00 0.00 0.00 23 1009.1
20260905201546 99 216 1.0 8.0 0.00 0.00 0.00 23 1009.1
20260905201045 100 196 3.0 7.0 0.00 0.00 0.00 23 1009.1
20260905200545 100 289 1.0 8.0 0.00 0.00 0.00 23 1009.1
20260905200044 100 197 2.0 9.0 0.00 0.00 0.00 23 1009.3
20260905195545 100 164 2.0 9.0 0.00 0.00 0.00 22 1009.2
20260905195045 101 233 0.0 5.0 0.00 0.00 0.00 23 1009.4
20260905194545 101 159 1.0 4.0 0.00 0.00 0.00 22 1009.4
20260905194044 101 138 1.0 4.0 0.00 0.00 0.00 23 1009.4
20260905193545 101 184 1.0 5.0 0.00 0.00 0.00 23 1009.5
20260905193043 101 201 2.0 5.0 0.00 0.00 0.00 23 1009.5
20260905192543 101 200 1.0 5.0 0.00 0.00 0.00 23 1009.5
20260905192046 101 188 1.0 5.0 0.00 0.00 0.00 23 1009.6
20260905191542 101 155 0.0 3.0 0.00 0.00 0.00 22 1009.8
20260905191042 101 123 1.0 5.0 0.00 0.00 0.00 22 1009.8
20260905190543 100 144 1.0 5.0 0.00 0.00 0.00 22 1009.9
20260905190040 100 207 0.0 4.0 0.00 0.00 0.00 23 1010.0
20260905185541 100 185 1.0 3.0 0.00 0.00 0.00 23 1010.1
20260905185040 100 338 1.0 4.0 0.00 0.00 0.00 23 1010.2
20260905184554 100 170 1.0 4.0 0.00 0.00 0.00 24 1010.2
20260905184038 100 143 1.0 4.0 0.00 0.00 0.00 23 1010.3
20260905183537 99 227 0.0 7.0 0.00 0.00 0.00 24 1010.3
20260905183045 99 151 1.0 7.0 0.00 0.00 0.00 24 1010.4
20260905182534 98 141 2.0 5.0 0.00 0.00 0.00 24 1010.4
20260905182034 98 221 2.0 5.0 0.00 0.00 0.00 24 1010.5
20260905181540 98 197 2.0 5.0 0.00 0.00 0.00 25 1010.5
20260905181031 98 200 0.0 4.0 0.00 0.00 0.00 27 1010.5
20260905180531 97 203 1.0 5.0 0.00 0.00 0.00 26 1010.5
20260905180035 97 125 1.0 6.0 0.00 0.00 0.00 26 1010.6
20260905175530 97 171 2.0 7.0 0.00 0.00 0.00 25 1010.6
20260905175029 97 119 2.0 7.0 0.00 0.00 0.00 25 1010.6
20260905174529 97 169 2.0 6.0 0.00 0.00 0.00 25 1010.6
20260905174028 97 193 2.0 6.0 0.00 0.00 0.00 25 1010.6
20260905173527 97 124 1.0 5.0 0.00 0.00 0.00 27 1010.5
20260905173028 96 135 1.0 4.0 0.00 0.00 0.00 26 1010.5
20260905172525 96 171 1.0 5.0 0.00 0.00 0.00 26 1010.5
20260905172025 96 266 1.0 5.0 0.00 0.00 0.00 26 1010.4
20260905171525 96 190 1.0 4.0 0.00 0.00 0.00 27 1010.4
20260905171027 96 140 1.0 4.0 0.00 0.00 0.00 27 1010.4
20260905170522 96 238 0.0 4.0 0.00 0.00 0.00 28 1010.4
20260905170021 95 172 1.0 4.0 0.00 0.00 0.00 28 1010.4
20260905165519 95 176 1.0 3.0 0.00 0.00 0.00 29 1010.4
20260905165018 95 159 0.0 5.0 0.00 0.00 0.00 28 1010.4
20260905164517 95 157 1.0 5.0 0.00 0.00 0.00 29 1010.3
20260905164017 94 161 1.0 4.0 0.00 0.00 0.00 29 1010.3
20260905163515 94 158 1.0 4.0 0.00 0.00 0.00 30 1010.3
20260905163013 93 184 0.0 2.0 0.00 0.00 0.00 30 1010.3
20260905162511 93 153 0.0 2.0 0.00 0.00 0.00 32 1010.3
20260905162010 93 293 1.0 2.0 0.00 0.00 0.00 32 1010.3
20260905161509 92 188 0.0 2.0 0.00 0.00 0.00 32 1010.2
20260905161008 92 173 0.0 2.0 0.00 0.00 0.00 32 1010.2
20260905160506 91 250 0.0 2.0 0.00 0.00 0.00 34 1010.3
20260905160005 90 161 0.0 2.0 0.00 0.00 0.00 35 1010.3
20260905155504 89 153 0.0 0.0 0.00 0.00 0.00 36 1010.3
20260905155003 88 68 0.0 0.0 0.00 0.00 0.00 37 1010.2
20260905154502 87 68 0.0 0.0 0.00 0.00 0.00 37 1010.3
20260905154002 87 54 0.0 0.0 0.00 0.00 0.00 39 1010.2
20260905153601 86 329 0.0 0.0 0.00 0.00 0.00 39 1010.2
20260905153109 86 329 0.0 0.0 0.00 0.00 0.00 41 1010.1
20260905152559 85 306 0.0 0.0 0.00 0.00 0.00 42 1010.0
20260905152101 85 306 0.0 0.0 0.00 0.00 0.00 41 1010.0
20260905151600 85 305 0.0 0.0 0.00 0.00 0.00 42 1010.0
20260905151056 85 305 0.0 0.0 0.00 0.00 0.00 44 1010.0
20260905150556 85 305 0.0 0.0 0.00 0.00 0.00 43 1010.1
20260905150056 85 136 0.0 0.0 0.00 0.00 0.00 44 1010.1
20260905145555 85 136 0.0 0.0 0.00 0.00 0.00 46 1010.1
20260905145055 84 136 0.0 0.0 0.00 0.00 0.00 49 1010.1
20260905144554 84 136 0.0 0.0 0.00 0.00 0.00 43 1010.0
20260905144053 84 136 0.0 0.0 0.00 0.00 0.00 44 1009.9
20260905143553 83 136 0.0 0.0 0.00 0.00 0.00 45 1009.8
20260905143052 83 136 0.0 0.0 0.00 0.00 0.00 47 1009.9
20260905142550 83 136 0.0 0.0 0.00 0.00 0.00 48 1009.8
20260905142056 83 136 0.0 0.0 0.00 0.00 0.00 51 1009.7
20260905141549 82 136 0.0 0.0 0.00 0.00 0.00 51 1009.6
20260905141052 82 136 0.0 0.0 0.00 0.00 0.00 46 1009.6
20260905140547 82 136 0.0 0.0 0.00 0.00 0.00 45 1009.6
20260905140048 82 136 0.0 0.0 0.00 0.00 0.00 47 1009.6
20260905135546 82 136 0.0 0.0 0.00 0.00 0.00 45 1009.5
20260905135045 82 136 0.0 0.0 0.00 0.00 0.00 45 1009.4
20260905134546 81 55 0.0 0.0 0.00 0.00 0.00 45 1009.4
20260905134047 81 55 0.0 0.0 0.00 0.00 0.00 45 1009.3
20260905133543 81 55 0.0 0.0 0.00 0.00 0.00 46 1009.2
20260905133048 81 55 0.0 0.0 0.00 0.00 0.00 46 1009.1
20260905132541 81 55 0.0 0.0 0.00 0.00 0.00 46 1009.0
20260905132040 81 55 0.0 0.0 0.00 0.00 0.00 45 1008.9
20260905131543 81 55 0.0 0.0 0.00 0.00 0.00 43 1008.9
20260905131041 81 22 0.0 0.0 0.00 0.00 0.00 43 1008.9
20260905130536 81 22 0.0 0.0 0.00 0.00 0.00 45 1008.8
20260905130041 81 22 0.0 0.0 0.00 0.00 0.00 42 1008.7
20260905125535 81 22 0.0 0.0 0.00 0.00 0.00 42 1008.7
20260905125036 81 22 0.0 0.0 0.00 0.00 0.00 44 1008.7
20260905124535 82 234 0.0 0.0 0.00 0.00 0.00 44 1008.7
20260905124034 82 234 0.0 0.0 0.00 0.00 0.00 41 1008.6
20260905123531 82 235 0.0 0.0 0.00 0.00 0.00 43 1008.6
20260905123030 82 234 0.0 0.0 0.00 0.00 0.00 42 1008.5
20260905122530 82 235 0.0 0.0 0.00 0.00 0.00 42 1008.4
20260905122029 82 234 0.0 0.0 0.00 0.00 0.00 44 1008.5
20260905121529 82 235 0.0 0.0 0.00 0.00 0.00 41 1008.5
20260905121028 83 234 0.0 0.0 0.00 0.00 0.00 42 1008.4
20260905120528 83 234 0.0 0.0 0.00 0.00 0.00 41 1008.3
20260905120027 83 234 0.0 2.0 0.00 0.00 0.00 41 1008.4
20260905115525 83 234 0.0 2.0 0.00 0.00 0.00 42 1008.3
20260905115027 83 148 0.0 2.0 0.00 0.00 0.00 43 1008.3
20260905114525 84 148 0.0 2.0 0.00 0.00 0.00 40 1008.3
20260905114023 84 105 0.0 2.0 0.00 0.00 0.00 39 1008.2
20260905113523 84 88 0.0 2.0 0.00 0.00 0.00 39 1008.2
20260905113022 84 80 1.0 2.0 0.00 0.00 0.00 39 1008.2
20260905112521 85 77 0.0 2.0 0.00 0.00 0.00 38 1008.3
20260905112021 85 306 0.0 2.0 0.00 0.00 0.00 37 1008.2
20260905111530 86 306 0.0 2.0 0.00 0.00 0.00 37 1008.1
20260905111019 86 306 0.0 2.0 0.00 0.00 0.00 36 1008.1
20260905110518 86 306 0.0 2.0 0.00 0.00 0.00 36 1008.1
20260905110032 86 306 0.0 3.0 0.00 0.00 0.00 36 1008.1
20260905105517 86 313 0.0 3.0 0.00 0.00 0.00 37 1008.1
20260905105017 86 298 1.0 3.0 0.00 0.00 0.00 36 1008.1
20260905104516 86 257 0.0 2.0 0.00 0.00 0.00 36 1008.1
20260905104015 86 307 0.0 2.0 0.00 0.00 0.00 36 1008.1
20260905103517 87 309 0.0 2.0 0.00 0.00 0.00 36 1008.0
20260905103014 87 238 0.0 2.0 0.00 0.00 0.00 35 1008.0
20260905102518 87 238 0.0 2.0 0.00 0.00 0.00 35 1007.9
20260905102014 87 238 0.0 2.0 0.00 0.00 0.00 35 1007.9
20260905101514 87 256 0.0 2.0 0.00 0.00 0.00 35 1007.9
20260905101013 88 250 0.0 3.0 0.00 0.00 0.00 35 1007.8
20260905100514 88 286 0.0 3.0 0.00 0.00 0.00 35 1007.7
20260905100014 88 294 1.0 6.0 0.00 0.00 0.00 35 1007.7
20260905095516 88 263 2.0 7.0 0.00 0.00 0.00 34 1007.7
20260905095016 88 246 3.0 7.0 0.00 0.00 0.00 35 1007.7
20260905094514 88 288 2.0 9.0 0.00 0.00 0.00 35 1007.7
20260905094012 88 259 4.0 10.0 0.00 0.00 0.00 35 1007.7
20260905093513 88 261 5.0 15.0 0.00 0.00 0.00 35 1007.7
20260905093015 88 266 6.0 15.0 0.00 0.00 0.00 35 1007.7
20260905092511 88 295 5.0 11.0 0.00 0.00 0.00 35 1007.8
20260905092011 88 322 7.0 11.0 0.00 0.00 0.00 36 1007.8
20260905091514 88 303 4.0 8.0 0.00 0.00 0.00 35 1007.8
20260905091010 88 275 2.0 7.0 0.00 0.00 0.00 36 1007.9
20260905090510 88 317 3.0 8.0 0.00 0.00 0.00 36 1007.9
20260905090016 88 304 3.0 8.0 0.00 0.00 0.00 36 1007.9
20260905085510 88 259 3.0 7.0 0.00 0.00 0.00 36 1007.9
20260905085010 88 299 3.0 7.0 0.00 0.00 0.00 36 1007.9
20260905084510 88 315 3.0 7.0 0.00 0.00 0.00 36 1007.9
20260905084008 88 289 3.0 7.0 0.00 0.00 0.00 36 1008.0
20260905083508 88 239 4.0 9.0 0.00 0.00 0.00 36 1008.0
20260905083008 88 269 5.0 8.0 0.00 0.00 0.00 36 1008.1
20260905082506 88 287 2.0 7.0 0.00 0.00 0.00 36 1008.1
20260905082011 88 296 3.0 8.0 0.00 0.00 0.00 36 1008.1
20260905081506 88 314 2.0 6.0 0.00 0.00 0.00 36 1008.1
20260905081007 88 276 2.0 4.0 0.00 0.00 0.00 36 1008.2
20260905080505 88 262 0.0 4.0 0.00 0.00 0.00 35 1008.2
20260905080005 88 259 1.0 5.0 0.00 0.00 0.00 36 1008.2
20260905075506 88 296 1.0 5.0 0.00 0.00 0.00 35 1008.3
20260905075005 87 263 3.0 7.0 0.00 0.00 0.00 36 1008.3
20260905074505 87 271 3.0 7.0 0.00 0.00 0.00 36 1008.2
20260905074005 87 269 1.0 3.0 0.00 0.00 0.00 36 1008.3
20260905073504 87 257 0.0 2.0 0.00 0.00 0.00 36 1008.4
20260905073003 87 205 0.0 2.0 0.00 0.00 0.00 36 1008.3
20260905072502 87 205 0.0 2.0 0.00 0.00 0.00 36 1008.3
20260905072001 88 188 0.0 0.0 0.00 0.00 0.00 35 1008.2
20260905071601 88 188 0.0 1.0 0.00 0.00 0.00 35 1008.2
20260905071104 88 188 0.0 2.0 0.00 0.00 0.00 34 1008.2
20260905070558 89 186 0.0 2.0 0.00 0.00 0.00 34 1008.2
20260905070057 89 210 0.0 1.0 0.00 0.00 0.00 34 1008.2
20260905065557 89 229 0.0 1.0 0.00 0.00 0.00 34 1008.1
20260905065056 89 229 0.0 1.0 0.00 0.00 0.00 33 1008.1
20260905064603 89 226 0.0 2.0 0.00 0.00 0.00 33 1008.1
20260905064056 90 226 0.0 2.0 0.00 0.00 0.00 33 1008.0
20260905063556 90 222 0.0 2.0 0.00 0.00 0.00 32 1008.0
20260905063058 90 195 0.0 5.0 0.00 0.00 0.00 33 1008.0
20260905062556 90 286 1.0 5.0 0.00 0.00 0.00 32 1007.9
20260905062055 90 288 2.0 5.0 0.00 0.00 0.00 32 1007.9
20260905061559 90 277 2.0 6.0 0.00 0.00 0.00 31 1007.9
20260905061057 90 262 2.0 6.0 0.00 0.00 0.00 31 1007.9
20260905060555 90 280 1.0 4.0 0.00 0.00 0.00 31 1007.8
20260905060055 90 260 2.0 4.0 0.00 0.00 0.00 31 1007.9
20260905055559 91 286 1.0 6.0 0.00 0.00 0.00 31 1007.9
20260905055055 91 296 2.0 6.0 0.00 0.00 0.00 31 1007.8
20260905054554 91 286 1.0 5.0 0.00 0.00 0.00 31 1007.8
20260905054054 91 279 1.0 5.0 0.00 0.00 0.00 31 1007.8
20260905053554 91 279 1.0 3.0 0.00 0.00 0.00 31 1007.8
20260905053103 91 240 1.0 3.0 0.00 0.00 0.00 31 1007.7
20260905052553 91 269 1.0 5.0 0.00 0.00 0.00 30 1007.7
20260905052053 92 282 2.0 5.0 0.00 0.00 0.00 30 1007.6
20260905051553 92 281 2.0 6.0 0.00 0.00 0.00 30 1007.6
20260905051053 92 248 2.0 6.0 0.00 0.00 0.00 30 1007.7
20260905050553 92 263 0.0 7.0 0.00 0.00 0.00 30 1007.6
20260905050053 92 250 2.0 7.0 0.00 0.00 0.00 30 1007.5
20260905045554 92 333 3.0 8.0 0.00 0.00 0.00 30 1007.6
20260905045053 92 292 3.0 8.0 0.00 0.00 0.00 30 1007.5
20260905044552 92 289 2.0 6.0 0.00 0.00 0.00 30 1007.5
20260905044052 93 265 2.0 6.0 0.00 0.00 0.00 29 1007.4
20260905043554 93 290 2.0 6.0 0.00 0.00 0.00 29 1007.3
20260905043057 93 269 2.0 5.0 0.00 0.00 0.00 29 1007.3
20260905042551 93 232 2.0 6.0 0.00 0.00 0.00 29 1007.2
20260905042053 93 263 2.0 6.0 0.00 0.00 0.00 29 1007.3
20260905041554 93 259 2.0 6.0 0.00 0.00 0.00 28 1007.2
20260905041053 93 265 2.0 6.0 0.00 0.00 0.00 28 1007.1
20260905040551 94 277 3.0 6.0 0.00 0.00 0.00 28 1007.1
20260905040054 94 237 1.0 9.0 0.00 0.00 0.00 28 1007.0
20260905035555 94 273 3.0 11.0 0.00 0.00 0.00 27 1007.0
20260905035054 94 265 2.0 11.0 0.00 0.00 0.00 27 1006.9
20260905034606 94 263 3.0 9.0 0.00 0.00 0.00 27 1006.9
20260905034050 94 272 4.0 9.0 0.00 0.00 0.00 27 1006.8
20260905033550 95 293 2.0 8.0 0.00 0.00 0.00 27 1006.8
20260905033112 95 299 5.0 9.0 0.00 0.00 0.00 26 1006.7
20260905032550 95 290 3.0 11.0 0.00 0.00 0.00 26 1006.7
20260905032049 95 254 3.0 10.0 0.00 0.00 0.00 26 1006.7
20260905031601 95 262 3.0 10.0 0.00 0.00 0.00 26 1006.6
20260905031048 95 302 4.0 8.0 0.00 0.00 0.00 26 1006.5
20260905030549 95 246 4.0 8.0 0.00 0.00 0.00 26 1006.4
20260905030057 95 264 3.0 9.0 0.00 0.00 0.00 26 1006.3
20260905025548 95 284 4.0 9.0 0.00 0.00 0.00 26 1006.2
20260905025049 95 296 4.0 8.0 0.00 0.00 0.00 26 1006.2
20260905024548 95 278 2.0 9.0 0.00 0.00 0.00 27 1006.1
20260905024048 95 249 2.0 9.0 0.00 0.00 0.00 27 1006.1
20260905023548 96 278 3.0 9.0 0.00 0.00 0.00 27 1006.1
20260905023055 96 264 1.0 9.0 0.00 0.00 0.00 27 1006.0
20260905022547 96 207 2.0 9.0 0.00 0.00 0.00 27 1005.8
20260905022047 96 224 3.0 8.0 0.00 0.00 0.00 28 1005.8
20260905021548 96 284 2.0 8.0 0.00 0.00 0.00 28 1005.8
20260905021047 96 245 2.0 9.0 0.00 0.00 0.00 28 1005.8
20260905020547 96 209 1.0 9.0 0.00 0.00 0.00 28 1005.7
20260905020047 97 188 1.0 9.0 0.00 0.00 0.00 27 1005.7
20260905015546 97 255 2.0 7.0 0.00 0.00 0.00 27 1005.6
20260905015046 97 253 2.0 7.0 0.00 0.00 0.00 27 1005.6